Wind_Speed
39 39 36 36 35 39 28 33 29 28 16 16 16 17 18 19 18 19 20 16 21 17 17 12 18 12 15 10 6 11 10 10 10 15 16 17 17 15 17 22 25 24 18
41 39 39 36 37 36 37 32 30 31 29 17 20 15 19 19 21 21 22 19 18 18 16 15 15 14 13 14 15 13 11 10 9 12 16 20 24 20 22 25 24 24 22
39 38 37 38 36 38 39 35 35 32 27 28 21 24 20 21 22 23 23 23 19 20 19 18 19 17 18 17 16 16 15 16 19 19 21 20 20 23 26 27 27 25 24
39 38 38 40 40 39 36 40 33 35 34 29 29 26 25 25 24 24 24 24 23 21 22 24 23 22 22 21 22 21 20 21 21 20 21 23 24 24 23 16 15 19 21
37 39 40 39 39 38 37 36 41 34 34 33 30 30 28 27 26 27 27 26 26 24 23 24 23 23 23 23 22 21 22 23 21 21 20 18 16 17 22 25 23 20 22
38 39 37 37 38 37 37 37 37 38 36 33 33 32 30 30 29 29 29 27 25 27 26 26 24 24 28 27 25 25 25 25 25 23 20 19 23 23 20 20 25 23 17
34 35 37 38 38 40 37 36 36 38 36 35 34 32 32 32 32 31 31 32 29 28 26 26 25 25 27 26 29 31 31 31 32 33 29 28 26 29 26 23 21 22 19
35 34 37 38 39 38 38 38 37 36 37 36 35 34 33 33 34 34 31 33 32 29 28 29 29 28 28 23 25 29 29 29 29 30 33 33 31 28 26 26 25 24 24
31 36 37 39 37 37 39 38 37 35 34 35 34 33 34 32 33 36 35 31 34 33 33 34 29 27 30 30 31 33 34 33 31 30 31 34 34 33 30 27 24 22 20
37 34 32 36 35 37 38 38 37 36 36 34 34 35 34 33 34 34 34 35 27 29 29 34 35 36 39 37 33 31 28 29 26 25 26 25 23 22 22 23 26 21 19
33 31 35 33 38 37 35 34 35 35 33 34 34 32 33 35 33 35 36 37 31 28 28 28 30 33 33 34 36 37 35 31 26 23 23 22 21 21 24 20 21 23 21
31 35 31 34 33 33 35 34 34 35 34 32 31 29 31 33 35 36 37 39 38 31 30 27 28 31 33 32 32 33 31 31 29 24 22 22 22 21 19 19 19 19 18
28 32 30 33 33 32 35 33 32 33 31 30 28 28 27 29 32 36 36 38 37 40 35 29 28 28 23 19 16 22 28 30 29 20 21 22 20 20 22 21 20 19 17
27 30 28 29 31 33 30 33 32 31 30 28 28 26 27 26 26 30 37 39 38 38 41 39 36 32 26 16 14 16 20 23 22 20 21 20 20 19 19 19 16 15 14
22 25 25 27 32 30 31 31 32 32 33 32 28 29 24 26 30 30 31 37 40 41 37 31 25 25 27 26 22 20 21 20 21 24 23 22 20 20 18 14 16 18 19
11 18 21 24 26 27 30 25 33 32 33 35 35 25 27 22 27 32 36 32 31 29 25 21 18 19 20 19 21 23 22 18 19 21 21 21 19 17 21 23 23 23 18
13 10 14 25 24 26 27 26 21 18 28 31 32 36 18 16 11 9 19 25 30 25 21 20 19 18 18 20 17 10 13 18 20 21 21 20 21 22 21 19 20 21 19
15 16 10 11 20 27 26 27 24 20 15 14 22 22 18 16 14 10 11 16 18 21 21 19 17 16 15 16 15 19 19 16 19 25 21 19 18 19 17 18 19 20 19
21 18 19 16 9 15 27 29 22 24 22 19 17 17 21 20 18 19 20 17 15 16 18 19 22 21 19 18 17 14 15 18 18 19 15 15 17 18 19 19 18 22 21
16 17 17 19 20 21 17 16 14 14 9 13 7 5 11 14 10 11 14 16 14 16 18 18 14 23 23 21 22 20 16 14 15 16 18 17 19 18 18 17 18 19 19
22 11 13 15 18 20 20 20 5 5 7 7 8 9 14 12 12 11 7 10 12 19 21 19 17 10 7 5 8 10 12 14 14 14 14 16 16 17 18 19 18 20 18
20 23 19 21 23 16 20 22 18 10 20 22 20 12 7 3 8 18 17 17 10 21 14 8 16 12 17 11 4 6 9 6 8 11 13 15 17 17 19 19 17 18 20
22 22 24 28 26 26 22 28 30 30 25 29 23 26 26 21 21 23 21 19 19 17 20 24 15 16 18 16 15 13 10 7 3 2 6 10 18 18 16 15 15 14 14
20 20 21 24 28 24 27 25 26 28 26 22 19 19 20 19 24 16 12 17 19 17 17 18 18 18 16 14 12 11 10 11 11 11 10 10 10 11 12 12 14 14 14
21 21 22 22 24 24 23 25 30 18 17 13 12 15 20 20 22 13 14 16 18 19 21 20 21 19 19 18 17 16 17 16 14 17 16 15 14 14 15 15 14 17 16
28 28 28 28 29 23 21 20 20 18 18 17 18 21 25 24 23 20 23 24 24 24 23 23 23 22 20 19 18 15 15 17 16 15 11 8 10 12 12 12 12 15 15
Wind_Direction
193 198 201 204 205 203 206 216 214 217 221 211 190 190 197 208 213 215 225 225 210 214 222 248 217 237 262 279 249 235 231 258 258 278 289 299 306 305 291 285 282 280 277
195 197 201 203 204 206 207 209 210 214 223 218 213 203 207 213 216 216 219 232 216 217 223 231 222 226 254 263 273 276 286 267 278 282 281 282 280 281 278 280 280 279 273
195 198 200 204 204 207 208 205 207 208 209 215 215 220 214 216 220 220 217 225 232 223 224 230 234 236 239 242 249 253 260 265 264 266 269 276 283 286 283 281 278 281 285
194 199 202 203 205 207 208 207 206 209 211 212 215 219 218 219 221 220 219 219 230 236 230 232 234 235 238 239 245 253 263 272 278 279 279 278 278 288 286 289 308 309 307
197 197 202 205 205 206 207 206 208 207 208 209 211 216 218 218 220 220 221 222 224 230 236 235 235 237 240 242 243 246 249 254 257 260 262 273 294 310 316 314 312 316 310
196 199 199 201 203 206 207 206 204 209 211 209 210 212 214 216 221 225 220 221 225 225 231 238 240 242 241 241 245 247 251 260 268 277 282 285 284 290 298 305 309 304 301
196 197 197 198 202 204 206 208 207 206 208 210 211 213 215 217 220 227 226 222 223 229 232 235 238 244 248 247 249 250 253 256 260 265 265 265 269 275 284 285 284 283 286
198 196 197 198 199 200 204 208 210 208 208 209 212 215 217 219 222 224 229 229 225 227 232 236 238 240 246 251 247 247 253 256 257 258 259 267 272 279 279 282 284 285 289
201 201 198 198 198 198 201 206 208 209 210 212 213 214 217 222 225 229 228 231 230 230 234 238 240 244 247 249 253 256 259 259 260 267 273 280 284 283 276 273 267 278 283
205 205 201 198 199 199 201 203 205 209 212 211 214 217 218 222 225 228 231 228 227 233 238 242 243 248 252 250 249 253 256 258 263 267 270 275 276 275 272 268 268 254 260
201 205 203 200 200 200 199 202 204 208 211 213 216 218 219 223 224 229 228 228 224 230 235 240 242 250 254 253 252 249 250 259 259 264 270 272 275 278 266 262 267 258 251
197 201 201 204 198 199 197 200 204 207 210 214 216 217 220 223 226 226 230 230 228 227 233 240 245 247 255 257 254 251 253 255 254 259 266 266 261 260 265 263 265 264 272
194 196 203 200 200 201 198 201 203 207 209 211 213 217 221 221 223 227 231 233 235 232 235 238 244 259 269 274 260 253 253 251 251 245 252 256 258 262 267 269 265 267 255
192 189 197 194 197 203 203 202 203 205 208 210 215 214 220 226 223 220 227 231 233 234 237 239 241 246 258 261 256 248 240 240 238 240 254 262 267 266 260 263 257 242 243
184 188 192 193 194 200 209 203 204 208 208 207 210 215 213 218 223 227 218 222 229 231 231 233 240 246 251 253 250 244 246 237 236 246 250 256 258 262 257 256 259 254 253
200 195 195 200 196 200 203 206 205 210 215 212 214 209 213 221 222 220 226 226 229 226 212 216 222 228 234 235 235 237 236 232 251 255 252 253 252 257 268 273 267 258 250
25 10 220 207 204 198 204 209 198 203 214 218 211 220 197 193 188 197 222 224 206 199 195 198 214 226 233 235 234 210 235 256 257 259 259 261 265 266 268 256 249 244 242
29 27 3 308 221 197 202 212 195 182 185 196 204 208 200 205 211 201 177 176 166 182 199 209 217 226 239 226 235 250 244 240 255 254 243 243 250 256 253 250 248 239 233
24 20 23 11 357 219 197 202 198 189 193 197 193 207 224 229 226 220 219 209 206 213 217 221 224 227 230 234 228 239 226 235 249 259 266 257 254 253 245 251 254 246 252
7 21 20 20 20 31 18 161 139 127 69 102 120 170 197 220 225 235 232 235 241 244 235 241 237 220 222 233 235 233 235 249 247 250 258 265 269 265 252 245 242 248 258
356 10 14 14 28 32 21 18 150 126 181 209 194 202 217 215 201 229 214 228 271 251 255 250 225 277 270 283 247 246 255 253 242 236 234 243 245 244 252 255 253 257 267
22 20 34 47 40 35 31 25 42 47 42 33 42 58 173 120 41 44 60 72 47 20 44 150 81 82 64 60 12 253 239 248 260 261 250 248 254 255 259 264 269 258 260
32 30 34 36 37 42 45 48 45 45 42 52 40 56 82 75 57 37 40 63 73 51 44 52 74 60 66 64 66 54 55 35 15 320 336 281 249 255 260 257 261 270 277
31 40 41 41 39 38 39 42 52 48 46 34 39 41 64 56 59 50 35 46 53 46 42 44 47 37 29 22 18 14 6 342 319 306 302 302 317 305 298 282 286 269 275
44 46 48 51 61 49 40 45 50 41 52 50 47 48 56 59 65 52 53 53 50 43 37 31 31 26 23 15 7 359 347 339 317 293 285 279 287 303 305 296 288 286 275
45 45 45 48 52 56 60 61 67 56 53 52 55 60 63 63 63 60 58 59 57 57 54 49 44 42 39 33 23 12 5 1 356 343 320 300 279 284 285 288 287 282 277
Height
779 788 795 800 806 810 815 819 822 826 828 831 835 837 840 844 847 849 851 853 855 856 856 857 858 859 859 859 860 861 861 862 862 861 860 858 858 858 856 854 852 850 849
771 779 786 793 800 804 808 812 818 821 824 827 831 834 837 840 843 845 847 849 851 852 853 855 856 857 857 857 857 857 859 860 860 858 857 856 855 854 851 848 846 844 842
764 772 779 786 792 796 801 806 811 816 819 823 826 829 832 835 838 841 843 845 847 849 850 851 852 853 855 856 856 855 856 855 856 856 854 852 850 848 846 844 841 838 837
754 763 770 775 781 788 794 800 804 809 813 817 821 824 827 830 833 836 838 841 843 845 846 847 848 849 850 852 853 853 853 852 851 851 850 848 845 842 840 840 839 838 835
744 752 758 767 775 782 788 793 798 802 806 810 814 818 821 825 827 830 833 835 838 840 842 843 844 845 845 847 848 849 850 849 848 846 845 844 842 840 838 837 836 834 831
734 741 752 761 769 775 781 786 791 796 800 805 807 811 814 817 820 823 827 830 832 834 836 838 839 840 840 841 842 844 845 845 844 842 841 840 840 839 837 835 833 832 828
724 734 743 751 759 766 774 780 784 788 793 797 801 804 806 809 813 817 820 823 826 828 830 832 834 835 835 835 836 836 837 838 839 838 836 835 834 834 833 831 829 827 825
717 725 734 741 748 757 766 771 776 781 785 789 793 796 800 801 804 809 813 816 818 821 823 825 827 828 829 829 829 829 829 829 830 830 829 827 827 827 827 826 824 822 819
710 716 723 732 740 748 755 762 769 775 779 782 786 789 792 795 798 801 806 809 811 813 815 817 819 820 820 823 824 823 822 822 824 823 822 821 820 820 820 819 818 817 813
701 709 719 727 734 740 746 753 761 767 770 775 778 781 784 787 790 794 798 802 805 806 807 808 810 811 813 815 816 816 815 814 816 816 815 815 815 813 813 812 811 810 809
697 706 713 719 725 732 741 749 754 759 764 767 770 774 777 780 783 786 790 793 796 798 799 800 800 801 803 805 806 806 805 807 809 809 808 808 807 806 805 805 804 804 804
691 698 704 712 719 726 733 740 746 752 756 760 763 765 768 771 774 777 780 783 786 790 790 792 793 794 794 795 796 797 799 801 803 803 803 801 800 799 800 800 799 798 799
685 692 698 705 712 719 725 732 737 743 747 752 755 758 759 762 765 768 770 774 778 780 782 785 786 787 788 789 789 790 793 794 796 797 796 794 794 793 793 794 794 793 793
680 685 692 699 707 713 718 724 729 733 738 742 745 748 752 755 755 758 761 764 766 770 773 775 778 781 782 783 783 784 785 786 788 789 789 789 789 788 788 788 788 789 788
677 683 688 694 700 707 712 715 719 723 727 731 734 739 742 744 745 748 749 752 755 757 763 768 771 773 775 777 778 779 779 780 781 782 782 782 782 783 783 783 783 783 783
679 682 685 690 695 700 706 709 712 716 720 724 728 730 734 734 735 738 741 742 745 751 757 762 763 765 766 768 769 771 773 776 777 777 777 777 777 777 778 779 779 779 778
685 685 685 688 690 693 699 702 706 709 713 717 721 724 727 730 732 732 733 735 742 747 750 753 755 756 757 759 761 763 766 769 773 773 773 772 772 772 773 773 774 774 773
689 687 686 686 685 687 691 697 700 704 709 712 716 719 723 726 727 730 733 735 738 741 743 744 747 749 751 752 754 756 759 762 765 766 766 767 767 768 769 768 769 768 767
693 691 689 688 684 681 683 690 691 697 702 707 711 716 718 720 724 727 730 729 732 734 736 737 739 741 743 744 747 750 752 754 755 759 761 763 763 763 763 764 764 763 763
696 694 692 690 686 684 686 685 688 694 701 701 707 712 715 717 720 723 725 728 729 731 732 729 730 733 733 737 740 743 747 749 750 752 754 757 760 760 759 758 758 757 757
697 696 694 693 691 693 693 691 696 702 701 704 703 707 711 716 721 723 721 726 723 722 731 728 725 729 733 728 734 739 742 745 746 748 749 751 754 754 754 753 752 751 751
702 698 695 696 700 701 700 701 702 706 700 706 706 704 713 718 724 729 724 718 722 715 717 732 714 727 724 726 732 735 737 741 744 743 745 747 751 750 749 749 747 746 746
704 704 701 699 703 703 706 704 707 710 716 704 722 714 717 722 726 732 731 725 720 730 731 718 728 732 725 731 733 734 734 738 740 741 742 743 745 746 744 742 742 743 742
715 714 714 712 711 710 711 714 717 719 722 728 729 730 729 734 722 731 744 734 727 734 737 735 731 729 731 734 736 736 735 737 740 742 741 739 739 740 740 738 738 738 739
728 725 724 726 722 723 724 725 711 736 740 742 744 742 733 735 729 747 742 739 736 735 736 736 733 736 734 738 741 740 739 737 739 738 739 738 738 737 736 736 735 735 735
733 730 730 727 724 733 739 741 744 747 746 748 745 742 736 740 742 746 739 735 736 736 739 743 742 741 744 748 749 747 745 742 739 739 738 735 734 734 732 733 732 731 731